This is the latest recevied weather packets stored in our database for station/object KC5EZZ-2. If no packets are shown the sender has not sent any weather packets the latest 10 day(s).
| Time | Temp. | Humidity | Pressure | Rain* | Wind** | Luminosity | Snow |
|---|---|---|---|---|---|---|---|
| 1777926716 | 32.22° C | - | - | 0 mm | 4.47 m/s, 219° | - | - |
| 1777926414 | 32.22° C | - | - | 0 mm | 4.92 m/s, 201° | - | - |
| 1777926113 | 32.22° C | - | - | 0 mm | 4.02 m/s, 125° | - | - |
| 1777925814 | 32.78° C | - | - | 0 mm | 6.26 m/s, 167° | - | - |
| 1777925658 | 25° C | - | - | 0 mm | 4.47 m/s, 193° | - | - |
| 1777925658 | 25.56° C | - | - | 0 mm | 5.36 m/s, 190° | - | - |
| 1777925658 | 25.56° C | - | - | 0 mm | 5.81 m/s, 195° | - | - |
| 1777925511 | 32.22° C | - | - | 0 mm | 3.58 m/s, 173° | - | - |
| 1777925211 | 32.22° C | - | - | 0 mm | 4.47 m/s, 176° | - | - |
| 1777924911 | 32.22° C | - | - | 0 mm | 4.47 m/s, 158° | - | - |
| 1777924609 | 32.22° C | - | - | 0 mm | 6.26 m/s, 181° | - | - |
| 1777924309 | 32.22° C | - | - | 0 mm | 4.02 m/s, 184° | - | - |
| 1777924009 | 31.67° C | - | - | 0 mm | 3.13 m/s, 143° | - | - |
| 1777923707 | 31.11° C | - | - | 0 mm | 4.92 m/s, 183° | - | - |
| 1777923407 | 31.67° C | - | - | 0 mm | 4.02 m/s, 180° | - | - |
| 1777923108 | 30.56° C | - | - | 0 mm | 4.92 m/s, 186° | - | - |
| 1777922818 | 30.56° C | - | - | 0 mm | 5.36 m/s, 187° | - | - |
| 1777922805 | 30.56° C | - | - | 0 mm | 4.47 m/s, 163° | - | - |
| 1777922506 | 30.56° C | - | - | 0 mm | 5.36 m/s, 187° | - | - |
| 1777922206 | 30.56° C | - | - | 0 mm | 4.47 m/s, 166° | - | - |
| 1777921903 | 29.44° C | - | - | 0 mm | 4.02 m/s, 200° | - | - |
| 1777921604 | 30° C | - | - | 0 mm | 4.47 m/s, 180° | - | - |
| 1777921304 | 29.44° C | - | - | 0 mm | 4.92 m/s, 187° | - | - |
| 1777921001 | 29.44° C | - | - | 0 mm | 5.81 m/s, 198° | - | - |
| 1777920702 | 30° C | - | - | 0 mm | 5.36 m/s, 191° | - | - |
* Rain latest hour (hover to see other rain measurements)
** Current wind speed in m/s (hover to see current wind gust speed)